Darstellungsparameter: Aktuell verwendete Einstellungen:
Skalierung der Graphiken ... ?
xyx+y,   Skalierungsfaktor:      Skalierung: Modus: x, Faktor: 1
Darstellungszeitraum ... ?
Vom - - bis: - -   Zeitraum: 23.07.2010 - 22.10.2010
Min/Max/Avg-Anzeige ... ?
Zeige MMA aktuell
Zeige MMA Monat
Zeige MMA alles
Zeige --A aktuell
Zeige --A Monat
Zeige --A alles
Keine MMA-Anzeige
MMA:
Average (ber die Originaldaten)
MMA-Basis: 23.07.2010 - 22.10.2010
Quicknavigation für Darstellung... ?
Tage:      1T, 2T, 3T, 5T -1T -2T -3T -5T +1T +2T +3T +5T
Wochen: 1W, 2W, 3W -1W -2W -3W +1W +2W +3W
Monate: 1M, 3M, 6M -1M -3M -6M +1M +3M +6M
Jahre:    1J, 3J, 5J, 10J -1J -3J -5J -10J +1J +3J +5J +10J
Nutze für die Darstellung ... ?
Originaldaten oder ...
Mittelwerte Minima Maxima auf...
Stundenbasis Tagesbasis Wochenbasis
Monatsbasis Jahresbasis      Datenbasis: Mittelwerte auf Tagesbasis
Darstellen als:
Statistik (Auto) Statistik J:M      Darstellung:
Zur Graphik,    zurück zur Übersicht aller Sensoren.
 
Tabellarische Datenbersicht: ?
 
Sensor: Nr:Datum:Temp:Abs-Feuchte:Windchill:Wind:
Aussen-T/F 1 23-07-2010 00:00:00 20.17059 C 11.52 g/m*3 20.17 C 0 km/h
2 24-07-2010 00:00:00 19.00667 C 9.15 g/m*3 19.01 C 0 km/h
3 25-07-2010 00:00:00 17.26833 C 7.8 g/m*3 17.27 C 0 km/h
4 26-07-2010 00:00:00 17.2925 C 11.46 g/m*3 17.29 C 0 km/h
5 27-07-2010 00:00:00 19.815 C 10.06 g/m*3 19.82 C 0 km/h
6 28-07-2010 00:00:00 20.5075 C 11.17 g/m*3 20.51 C 0 km/h
7 29-07-2010 00:00:00 16.32417 C 11.42 g/m*3 16.32 C 0 km/h
8 30-07-2010 00:00:00 19.665 C 9.34 g/m*3 19.67 C 0 km/h
9 31-07-2010 00:00:00 20.62417 C 9.08 g/m*3 20.62 C 0 km/h
10 01-08-2010 00:00:00 22.90833 C 11.98 g/m*3 22.91 C 0 km/h
11 02-08-2010 00:00:00 19.60917 C 11.25 g/m*3 19.61 C 0 km/h
12 03-08-2010 00:00:00 18.94167 C 10.12 g/m*3 18.94 C 0 km/h
13 04-08-2010 00:00:00 19.62269 C 9.16 g/m*3 19.62 C 0 km/h
14 05-08-2010 00:00:00 18.49417 C 10 g/m*3 18.49 C 0 km/h
15 06-08-2010 00:00:00 19.04667 C 8.08 g/m*3 19.05 C 0 km/h
16 07-08-2010 00:00:00 19.46583 C 7.91 g/m*3 19.47 C 0 km/h
17 08-08-2010 00:00:00 18.485 C 11.68 g/m*3 18.49 C 0 km/h
18 09-08-2010 00:00:00 19.515 C 10.42 g/m*3 19.52 C 0 km/h
19 10-08-2010 00:00:00 22.13583 C 9.74 g/m*3 22.14 C 0 km/h
20 11-08-2010 00:00:00 20.32833 C 12.64 g/m*3 20.33 C 0 km/h
21 12-08-2010 00:00:00 19.10917 C 11.28 g/m*3 19.11 C 0 km/h
22 13-08-2010 00:00:00 18.77833 C 9.07 g/m*3 18.78 C 0 km/h
23 14-08-2010 00:00:00 19.9675 C 9.59 g/m*3 19.97 C 0 km/h
24 15-08-2010 00:00:00 16.88667 C 11.8 g/m*3 16.89 C 0 km/h
25 16-08-2010 00:00:00 17.07479 C 11.15 g/m*3 17.07 C 0 km/h
Sensor: Nr:Datum:Temp:Abs-Feuchte:Windchill:Wind:
Aussen-T/F 26 17-08-2010 00:00:00 16.06667 C 10.71 g/m*3 16.07 C 0 km/h
27 18-08-2010 00:00:00 18.40917 C 9.91 g/m*3 18.41 C 0 km/h
28 19-08-2010 00:00:00 18.88917 C 8.2 g/m*3 18.89 C 0 km/h
29 20-08-2010 00:00:00 20.42605 C 9.9 g/m*3 20.43 C 0 km/h
30 21-08-2010 00:00:00 23.76417 C 11.32 g/m*3 23.76 C 0 km/h
31 22-08-2010 00:00:00 23.01667 C 12.14 g/m*3 23.02 C 0 km/h
32 23-08-2010 00:00:00 21.205 C 13.12 g/m*3 21.21 C 0 km/h
33 24-08-2010 00:00:00 19.27083 C 7.86 g/m*3 19.27 C 0 km/h
34 25-08-2010 00:00:00 17.61917 C 7.68 g/m*3 17.62 C 0 km/h
35 26-08-2010 00:00:00 20.68083 C 11.52 g/m*3 20.68 C 0 km/h
36 27-08-2010 00:00:00 18.37667 C 13.18 g/m*3 18.38 C 0 km/h
37 28-08-2010 00:00:00 14.0675 C 8.89 g/m*3 14.07 C 0 km/h
38 29-08-2010 00:00:00 13.03167 C 8.58 g/m*3 13.03 C 0 km/h
39 30-08-2010 00:00:00 12.5675 C 8.53 g/m*3 12.57 C 0 km/h
40 31-08-2010 00:00:00 15.42917 C 8.4 g/m*3 15.43 C 0 km/h
41 01-09-2010 00:00:00 14.82437 C 8.4 g/m*3 14.82 C 0 km/h
42 02-09-2010 00:00:00 14.95333 C 8.79 g/m*3 14.95 C 0 km/h
43 03-09-2010 00:00:00 15.91417 C 9.06 g/m*3 15.91 C 0 km/h
44 04-09-2010 00:00:00 16.71417 C 8.43 g/m*3 16.71 C 0 km/h
45 05-09-2010 00:00:00 15.205 C 7.52 g/m*3 15.21 C 0 km/h
46 06-09-2010 00:00:00 15.675 C 6.76 g/m*3 15.68 C 0 km/h
47 07-09-2010 00:00:00 13.36083 C 8.36 g/m*3 13.36 C 0 km/h
48 08-09-2010 00:00:00 15.545 C 10.94 g/m*3 15.55 C 0 km/h
49 09-09-2010 00:00:00 16.20583 C 9.61 g/m*3 16.21 C 0 km/h
50 10-09-2010 00:00:00 16.18 C 10.13 g/m*3 16.18 C 0 km/h
Sensor: Nr:Datum:Temp:Abs-Feuchte:Windchill:Wind:
Aussen-T/F 51 11-09-2010 00:00:00 18.13417 C 10.44 g/m*3 18.13 C 0 km/h
52 12-09-2010 00:00:00 16.21667 C 10.52 g/m*3 16.22 C 0 km/h
53 13-09-2010 00:00:00 15.67583 C 9.31 g/m*3 15.68 C 0 km/h
54 14-09-2010 00:00:00 16.63697 C 8.96 g/m*3 16.64 C 0 km/h
55 15-09-2010 00:00:00 16.3175 C 7.82 g/m*3 16.32 C 0 km/h
56 16-09-2010 00:00:00 14.07 C 8.33 g/m*3 14.07 C 0 km/h
57 17-09-2010 00:00:00 13.76667 C 7.53 g/m*3 13.77 C 0 km/h
58 18-09-2010 00:00:00 11.45083 C 6.84 g/m*3 11.45 C 0 km/h
59 19-09-2010 00:00:00 11.7425 C 6.69 g/m*3 11.74 C 0 km/h
60 20-09-2010 00:00:00 14.01 C 7.27 g/m*3 14.01 C 0 km/h
61 21-09-2010 00:00:00 14.27 C 8.52 g/m*3 14.27 C 0 km/h
62 22-09-2010 00:00:00 15.86667 C 9.22 g/m*3 15.87 C 0 km/h
63 23-09-2010 00:00:00 16.56167 C 9.98 g/m*3 16.56 C 0 km/h
64 24-09-2010 00:00:00 14.165 C 11.47 g/m*3 14.17 C 0 km/h
65 25-09-2010 00:00:00 12.41833 C 7.9 g/m*3 12.42 C 0 km/h
66 26-09-2010 00:00:00 11.2425 C 7.29 g/m*3 11.24 C 0 km/h
67 27-09-2010 00:00:00 9.86807 C 7.48 g/m*3 9.87 C 0 km/h
68 28-09-2010 00:00:00 10.93083 C 9.4 g/m*3 10.93 C 0 km/h
69 29-09-2010 00:00:00 13.39417 C 8.9 g/m*3 13.39 C 0 km/h
70 30-09-2010 00:00:00 11.89667 C 8.83 g/m*3 11.9 C 0 km/h
71 01-10-2010 00:00:00 12.33667 C 9.1 g/m*3 12.34 C 0 km/h
72 02-10-2010 00:00:00 13.4525 C 10.36 g/m*3 13.45 C 0 km/h
73 03-10-2010 00:00:00 17.83583 C 10.56 g/m*3 17.84 C 0 km/h
74 04-10-2010 00:00:00 16.905 C 9.67 g/m*3 16.91 C 0 km/h
75 05-10-2010 00:00:00 15.64833 C 10.9 g/m*3 15.65 C 0 km/h
Sensor: Nr:Datum:Temp:Abs-Feuchte:Windchill:Wind:
Aussen-T/F 76 06-10-2010 00:00:00 17.22333 C 9.99 g/m*3 17.22 C 0 km/h
77 07-10-2010 00:00:00 16.31167 C 10.3 g/m*3 16.31 C 0 km/h
78 08-10-2010 00:00:00 16.02917 C 9.37 g/m*3 16.03 C 0 km/h
79 09-10-2010 00:00:00 13.1475 C 8.13 g/m*3 13.15 C 0 km/h
80 10-10-2010 00:00:00 11.6125 C 6.4 g/m*3 11.61 C 0 km/h
81 11-10-2010 00:00:00 10.90084 C 5.45 g/m*3 10.9 C 0 km/h
82 12-10-2010 00:00:00 8.71917 C 5.9 g/m*3 8.72 C 0 km/h
83 13-10-2010 00:00:00 7.475 C 5.54 g/m*3 7.48 C 0 km/h
84 14-10-2010 00:00:00 7.55583 C 5.99 g/m*3 7.56 C 0 km/h
85 15-10-2010 00:00:00 10.475 C 7.36 g/m*3 10.48 C 0 km/h
86 16-10-2010 00:00:00 8.375 C 7.62 g/m*3 8.38 C 0 km/h
87 17-10-2010 00:00:00 7.22667 C 6.33 g/m*3 7.23 C 0 km/h
88 18-10-2010 00:00:00 6.71833 C 5.58 g/m*3 6.72 C 0 km/h
89 19-10-2010 00:00:00 7.28167 C 6.47 g/m*3 7.28 C 0 km/h
90 20-10-2010 00:00:00 6.14167 C 5.97 g/m*3 6.14 C 0 km/h
91 21-10-2010 00:00:00 5.27 C 4.63 g/m*3 5.27 C 0 km/h
92 22-10-2010 00:00:00 4.20167 C 4.11 g/m*3 4.2 C 0 km/h

Maximal/Minimal-Werte vom 23.07.2010 - 22.10.2010

Sensor Min Max Avg
Temp
(Aussen-T/F)
0.6 °C
22-10-2010  07:46:02
32.8 °C
21-08-2010  17:36:02
15.52 °C
Abs-Feuchte
(Aussen-T/F)
4.11 g/m*3
22-10-2010  00:00:00
13.18 g/m*3
27-08-2010  00:00:00
8.96 g/m*3
Windchill
(Aussen-T/F)
4.2 C
22-10-2010  00:00:00
23.76 C
21-08-2010  00:00:00
15.35 C

Die Daten stammen von einer Davis Vantage Pro 2 Wetter-Station und werden unter Linux mit der Software wview2wettercgi und aufbereitet. Alle Angaben erfolgen ohne Gewähr für ihre Vollständigkeit oder Richtigkeit.
Kontakt: Rainer Krienke krienke@uni-koblenz.de . Meine Webseiten an der Uni Koblenz oder privat.
Version: $Revision: 0.78 $